カタログに戻る

STARLINK-11084

運用中通信VLEO
NORAD 59717·PAYLOAD·🇺🇸 United States

打ち上げ May 10, 2024 から Vandenberg Space Force Base

Loading…

次のパス (今後24時間)

TLE

最新Source: CelesTrak SupGP

元期: Sep 14, 2026, 21:35 UTC

1 59717C 24088K   26257.89979167 -.00049581  00000+0 -40848-3 0  2571
2 59717  53.1559 113.3849 0001198  95.8736 199.7372 15.69730148    18

AllMySatでSTARLINK-11084をリアルタイム追跡

Download on the App Store